Regional Weather Roundup
Issued by NWS Charleston, SC

Current Version | Previous Version | Graphics & Text | Print | Product List | Glossary On
Versions: 1 2 3 4 5 6 7 8 9 10 11 12 13 14 15 16 17 18 19 20 21 22 23 24 25 26 27 28 29 30 31 32 33 34 35 36 37 38 39 40 41 42 43 44 45 46 47 48 49 50
000 ASUS42 KCHS 011627 RWRCHS REGIONAL WEATHER ROUNDUP NATIONAL WEATHER SERVICE CHARLESTON SC 1200 PM EDT TUE SEP 01 2015 NOTE: "FAIR" INDICATES FEW OR NO CLOUDS BELOW 12,000 FEET WITH NO SIGNIFICANT WEATHER AND/OR OBSTRUCTIONS TO VISIBILITY. NOT ALL STATIONS ARE QUALITY CONTROLLED BY THE NATIONAL WEATHER SERVICE. USE DATA WITH CAUTION...ESPECIALLY DEWPOINT OBSERVATIONS. SCZ027-030-031-034>040-042>050-011700- ...SOUTHEAST SOUTH CAROLINA... CITY SKY/WX TMP DP RH WIND PRES REMARKS N CHARLESTON MOSUNNY 86 71 60 NW3 30.11F HX 91 WATERFRONT PRK N/A 83 73 71 VRB3 30.09F MOUNT PLEASANT FAIR 88 73 62 CALM 30.11S HX 96 JOHNS ISLAND FAIR 86 73 66 E3 30.11S HX 93 PINOPOLIS N/A 84 73 70 VRB2 30.05R HX 91 MONCKS CORNER FAIR 86 70 58 CALM 30.11F HX 90 SUMMERVILLE PTSUNNY 86 72 62 N3 30.12F HX 92 BEAUFORT MCAS PTSUNNY 85 72 65 VRB3 30.12S HX 91 BEAUFORT ARPT FAIR 82 73 74 CALM 30.11S HILTON HEAD IS MOSUNNY 82 72 69 N3 30.13F WALTERBORO PTSUNNY 86 70 58 CALM 30.12F HX 90 ALLENDALE FAIR 84 70 61 VRB5 30.11F ...SOUTHERN MIDLANDS AND PEE DEE... CITY SKY/WX TMP DP RH WIND PRES REMARKS GEORGETOWN NOT AVBL KINGSTREE NOT AVBL ORANGEBURG PTSUNNY 85 68 56 NW5 30.12F BARNWELL PTSUNNY 84 70 61 CALM 30.12F AIKEN FAIR 82 64 54 CALM 30.16F MANNING FAIR 82 64 54 W3 30.10F COLUMBIA PTSUNNY 87 69 54 VRB3 30.11F HX 91 SUMTER MOSUNNY 87 69 54 VRB5 30.10F HX 91 FLORENCE SUNNY 86 70 58 CALM 30.11F HX 90 MYRTLE BEACH MOSUNNY 86 70 58 N7 30.12F HX 90 N MYRTLE BEACH MOSUNNY 84 73 69 N7 30.10F HX 90 $$ GAZ063-065-086>088-099>101-113>116-118-119-134>141-150-011700- ...SOUTHEAST GEORGIA... CITY SKY/WX TMP DP RH WIND PRES REMARKS SAVANNAH ARPT PTSUNNY 84 73 69 NE6 30.12S HX 90 HUNTER AAF PTSUNNY 84 78 81 NE5 30.10S HX 94 FORT STEWART PTSUNNY 85 74 69 E5 30.09F HX 93 STATESBORO MOSUNNY 84 75 73 NE5 30.11F HX 92 SYLVANIA PTSUNNY 86 74 69 NE3 30.12F HX 94 CLAXTON NOT AVBL ...CSRA...CENTRAL AND FAR SOUTHEAST GEORGIA... CITY SKY/WX TMP DP RH WIND PRES REMARKS THOMSON MOSUNNY 86 73 65 CALM 30.17F HX 92 AUGUSTA-BUSH MOSUNNY 84 70 62 VRB3 30.11F AUGUSTA-DANIEL MOSUNNY 85 69 58 MISG 30.14F SWAINSBORO PTSUNNY 88 66 48 NE5 30.12F HX 90 VIDALIA PTSUNNY 86 72 62 N5 30.12F HX 92 EASTMAN FAIR 85 71 62 CALM 30.14F HX 90 HAZLEHURST FAIR 89 72 56 N6 30.10F HX 96 ALMA MOSUNNY 87 74 64 VRB5 30.10F HX 95 WAYCROSS CLOUDY 86 81 84 NE6 30.10F HX 103 JESUP PTSUNNY 86 79 79 E6 30.10F HX 99 BAXLEY CLOUDY 88 72 58 N5 30.10F HX 94 BRUNSWICK CLOUDY 77 75 94 NE15 30.10F THUNDER SAINT SIMONS CLOUDY 78 76 93 NE9 30.09F $$ SCZ027-028-034-036>038-045-046-048>050-GAZ119-141-011700- ...LAKE AND SUPPLEMENTAL COASTAL OBSERVATIONS... STATION/POSITION TIME TEMP WIND PRES WAVE SWELL AIR SEA DIR/SP/G HT/PER HT/PER/DIR (UTC) (F) (DEG/KT/KT) (MB) (FT/S) (FT/S/D) UPR LAKE MARION NOT AVBL WINYAH BAY 1545 83 330/ 4 1019.0S LAKE MURRAY 1500 82 170/ 3/ 4 1019.6F ACE BASIN NERRS NOT AVBL FORT PULASKI 1600 81 83 40/ 5/ 7 1020.3S SAPELO ISLAND 1600 82 N/A $$ ANZ835-935-AMZ111-154-330-350-352-354-370-450-454-472-011700- ...C-MAN AND BUOY OBSERVATIONS... STATION/POSITION TIME TEMP WIND PRES WAVE SWELL AIR SEA DIR/SP/G HT/PER HT/PER/DIR (UTC) (F) (DEG/KT/KT) (MB) (FT/S) (FT/S/D) BUOY 41004 1550 81 83 20/ 8/ 8 1019.2F 3/ 8 2/ 8 BUOY 41008 1550 79 84 120/ 2/ 4 1019.7R 2/10 2/ 90/10 FOLLY BEACH CMAN 1600 82 100/ 3/ 4 1019.9F CAPERS NEARSHORE 1508 81 10/ 6/ 8 1019.8F FRIPP NEARSHORE 1500 81 30/ 8/ 10 1019.5R STATION/POSITION TIME TEMP WIND PRES WAVE SWELL AIR SEA DIR/SP/G HT/PER HT/PER/DIR (UTC) (F) (DEG/KT/KT) (MB) (FT/S) (FT/S/D) 5E ST. MARYS GA 1521 84 N/A 2/ 8 FRYING PAN BUOY 1550 78 81 330/ 12/ 14 1019.8F 2/ 9 2/120/ 9 BUOY 41025 1550 79 84 350/ 8/ 10 1018.5F 3/ 6 3/170/ 6 CAPE LOOKOUT NC 1600 80 290/ 6/ 7 1018.8F BUOY 41002 1550 83 84 280/ 2/ 4 1019.5F 3/ 7 3/190/ 7 BUOY 41010 1520 85 86 170/ 6/ 6 1019.9F ST AUGUSTINE FL 1600 81 83 140/ 8/ 8 1020.0R $$

USA.gov is the U.S. government's official web portal to all federal, state and local government web resources and services.